Retour au catalogue

GRAVITY-1 R/B

ActifSSO
NORAD 100138·ROCKET BODY·🇨🇳 China

Lancé Jul 22, 2026 depuis Yellow Sea Launch Area

Loading…

Prochains Passages (prochaines 24 heures)

TLE

FraisSource: Space-Track

Époque: Sep 14, 2026, 15:21 UTC

1 A0138U 26168K   26257.63965756  .00029478  00000-0  34670-3 0  9997
2 A0138  97.5317 341.6528 0143797 238.1829 120.5354 15.49721843  8449

Suivez GRAVITY-1 R/B en temps réel avec AllMySat

Download on the App Store